Location: Newark
(41.8083°N, 72.2500°W)
Time: 21:22:02
(UTC+00:00)

Courier 1B - Pass Details

Date: 09 December 2021
Orbit: 962 x 1209 km, 28.3° (Epoch: 19 January)

Event Time Altitude Azimuth Distance (km) Brightness Sun altitude
Rises 00:47:58 0° 255° (WSW) 3,963 11.5 -38.3°
Reaches altitude 10° 00:53:18 10° 224° (SW) 2,931 10.3 -39.3°
Maximum altitude 00:55:19 11° 207° (SSW) 2,808 10.1 -39.6°
Enters shadow 00:56:11 11° 200° (SSW) 2,814 10.0 -39.8°
Drops below altitude 10° 00:57:18 10° 190° (S) 2,875 - -40.0°
Sets 01:02:23 0° 158° (SSE) 3,759 - -40.9°
